Year,Month,Day,Hour,Minute,Value (Times are PST for temperature in C)
2008,09,15,00,00,11.80
2008,09,15,00,01,11.80
2008,09,15,00,02,11.80
2008,09,15,00,03,11.80
2008,09,15,00,04,11.80
2008,09,15,00,05,11.80
2008,09,15,00,06,11.80
2008,09,15,00,07,11.80
2008,09,15,00,08,11.80
2008,09,15,00,09,11.70
2008,09,15,00,10,11.70
2008,09,15,00,11,11.70
2008,09,15,00,12,11.60
2008,09,15,00,13,11.60
2008,09,15,00,14,11.60
2008,09,15,00,15,11.60
2008,09,15,00,16,11.60
2008,09,15,00,17,11.60
2008,09,15,00,18,11.60
2008,09,15,00,19,11.60
2008,09,15,00,20,11.60
2008,09,15,00,21,11.60
2008,09,15,00,22,11.60
2008,09,15,00,23,11.40
2008,09,15,00,24,11.40
2008,09,15,00,25,11.40
2008,09,15,00,26,11.40
2008,09,15,00,27,11.40
2008,09,15,00,28,11.40
2008,09,15,00,29,11.40
2008,09,15,00,30,11.40
2008,09,15,00,31,11.40
2008,09,15,00,32,11.40
2008,09,15,00,33,11.40
2008,09,15,00,34,11.40
2008,09,15,00,35,11.40
2008,09,15,00,36,11.40
2008,09,15,00,37,11.40
2008,09,15,00,38,11.30
2008,09,15,00,39,11.30
2008,09,15,00,40,11.30
2008,09,15,00,41,11.30
2008,09,15,00,42,11.30
2008,09,15,00,43,11.30
2008,09,15,00,44,11.30
2008,09,15,00,45,11.30
2008,09,15,00,46,11.20
2008,09,15,00,47,11.20
2008,09,15,00,48,11.20
2008,09,15,00,49,11.20
2008,09,15,00,50,11.20
2008,09,15,00,51,11.20
2008,09,15,00,52,11.10
2008,09,15,00,53,11.10
2008,09,15,00,54,11.10
2008,09,15,00,55,11.10
2008,09,15,00,56,11.10
2008,09,15,00,57,11.10
2008,09,15,00,58,11.10
2008,09,15,00,59,11.10
2008,09,15,01,00,11.10
2008,09,15,01,01,11.10
2008,09,15,01,02,11.10
2008,09,15,01,03,11.10
2008,09,15,01,04,11.10
2008,09,15,01,05,11.10
2008,09,15,01,06,11.10
2008,09,15,01,07,11.10
2008,09,15,01,08,11.10
2008,09,15,01,09,11.10
2008,09,15,01,10,11.10
2008,09,15,01,11,11.10
2008,09,15,01,12,11.10
2008,09,15,01,13,11.00
2008,09,15,01,14,10.90
2008,09,15,01,15,10.90
2008,09,15,01,16,10.90
2008,09,15,01,17,10.90
2008,09,15,01,18,10.90
2008,09,15,01,19,10.90
2008,09,15,01,20,10.90
2008,09,15,01,21,10.90
2008,09,15,01,22,10.90
2008,09,15,01,23,10.90
2008,09,15,01,24,10.90
2008,09,15,01,25,10.90
2008,09,15,01,26,10.90
2008,09,15,01,27,10.90
2008,09,15,01,28,10.90
2008,09,15,01,29,10.80
2008,09,15,01,30,10.80
2008,09,15,01,31,10.80
2008,09,15,01,32,10.80
2008,09,15,01,33,10.80
2008,09,15,01,34,10.80
2008,09,15,01,35,10.80
2008,09,15,01,36,10.80
2008,09,15,01,37,10.80
2008,09,15,01,38,10.80
2008,09,15,01,39,10.70
2008,09,15,01,40,10.70
2008,09,15,01,41,10.70
2008,09,15,01,42,10.70
2008,09,15,01,43,10.70
2008,09,15,01,44,10.70
2008,09,15,01,45,10.70
2008,09,15,01,46,10.70
2008,09,15,01,47,10.60
2008,09,15,01,48,10.60
2008,09,15,01,49,10.60
2008,09,15,01,50,10.60
2008,09,15,01,51,10.60
2008,09,15,01,52,10.60
2008,09,15,01,53,10.60
2008,09,15,01,54,10.60
2008,09,15,01,55,10.60
2008,09,15,01,56,10.60
2008,09,15,01,57,10.60
2008,09,15,01,58,10.60
2008,09,15,01,59,10.60
2008,09,15,02,00,10.60
2008,09,15,02,01,10.50
2008,09,15,02,02,10.40
2008,09,15,02,03,10.40
2008,09,15,02,04,10.40
2008,09,15,02,05,10.40
2008,09,15,02,06,10.40
2008,09,15,02,07,10.40
2008,09,15,02,08,10.40
2008,09,15,02,09,10.40
2008,09,15,02,10,10.40
2008,09,15,02,11,10.40
2008,09,15,02,12,10.40
2008,09,15,02,13,10.40
2008,09,15,02,14,10.40
2008,09,15,02,15,10.40
2008,09,15,02,16,10.40
2008,09,15,02,17,10.40
2008,09,15,02,18,10.40
2008,09,15,02,19,10.40
2008,09,15,02,20,10.30
2008,09,15,02,21,10.30
2008,09,15,02,22,10.30
2008,09,15,02,23,10.30
2008,09,15,02,24,10.30
2008,09,15,02,25,10.30
2008,09,15,02,26,10.30
2008,09,15,02,27,10.30
2008,09,15,02,28,10.30
2008,09,15,02,29,10.30
2008,09,15,02,30,10.30
2008,09,15,02,31,10.30
2008,09,15,02,32,10.30
2008,09,15,02,33,10.30
2008,09,15,02,34,10.30
2008,09,15,02,35,10.30
2008,09,15,02,36,10.30
2008,09,15,02,37,10.30
2008,09,15,02,38,10.30
2008,09,15,02,39,10.30
2008,09,15,02,40,10.30
2008,09,15,02,41,10.20
2008,09,15,02,42,10.20
2008,09,15,02,43,10.20
2008,09,15,02,44,10.20
2008,09,15,02,45,10.20
2008,09,15,02,46,10.20
2008,09,15,02,47,10.20
2008,09,15,02,48,10.20
2008,09,15,02,49,10.20
2008,09,15,02,50,10.10
2008,09,15,02,51,10.10
2008,09,15,02,52,10.10
2008,09,15,02,53,10.10
2008,09,15,02,54,10.10
2008,09,15,02,55,10.10
2008,09,15,02,56,10.10
2008,09,15,02,57,10.10
2008,09,15,02,58,10.10
2008,09,15,02,59,10.10
2008,09,15,03,00,10.10
2008,09,15,03,01,10.10
2008,09,15,03,02,10.10
2008,09,15,03,03,10.10
2008,09,15,03,04,10.10
2008,09,15,03,05,10.10
2008,09,15,03,06,10.10
2008,09,15,03,07,10.10
2008,09,15,03,08,10.10
2008,09,15,03,09,10.10
2008,09,15,03,10,10.10
2008,09,15,03,11,10.10
2008,09,15,03,12,10.10
2008,09,15,03,13,10.10
2008,09,15,03,14,10.10
2008,09,15,03,15,10.10
2008,09,15,03,16,10.10
2008,09,15,03,17,10.10
2008,09,15,03,18,10.10
2008,09,15,03,19,10.10
2008,09,15,03,20,10.10
2008,09,15,03,21,10.10
2008,09,15,03,22,10.10
2008,09,15,03,23,10.10
2008,09,15,03,24,10.10
2008,09,15,03,25,10.10
2008,09,15,03,26,10.10
2008,09,15,03,27,10.10
2008,09,15,03,28,10.10
2008,09,15,03,29,10.10
2008,09,15,03,30,10.10
2008,09,15,03,31,10.20
2008,09,15,03,32,10.20
2008,09,15,03,33,10.20
2008,09,15,03,34,10.10
2008,09,15,03,35,10.10
2008,09,15,03,36,10.10
2008,09,15,03,37,10.10
2008,09,15,03,38,10.10
2008,09,15,03,39,10.10
2008,09,15,03,40,10.10
2008,09,15,03,41,10.10
2008,09,15,03,42,10.10
2008,09,15,03,43,10.10
2008,09,15,03,44,10.10
2008,09,15,03,45,10.10
2008,09,15,03,46,10.10
2008,09,15,03,47,10.10
2008,09,15,03,48,10.10
2008,09,15,03,49,10.10
2008,09,15,03,50,10.10
2008,09,15,03,51,10.10
2008,09,15,03,52,10.10
2008,09,15,03,53,10.10
2008,09,15,03,54,10.10
2008,09,15,03,55,10.00
2008,09,15,03,56,9.90
2008,09,15,03,57,9.90
2008,09,15,03,58,9.90
2008,09,15,03,59,9.90
2008,09,15,04,00,9.90
2008,09,15,04,01,9.90
2008,09,15,04,02,9.90
2008,09,15,04,03,9.90
2008,09,15,04,04,9.90
2008,09,15,04,05,9.90
2008,09,15,04,06,9.90
2008,09,15,04,07,9.90
2008,09,15,04,08,9.90
2008,09,15,04,09,9.90
2008,09,15,04,10,9.90
2008,09,15,04,11,9.90
2008,09,15,04,12,9.80
2008,09,15,04,13,9.80
2008,09,15,04,14,9.80
2008,09,15,04,15,9.80
2008,09,15,04,16,9.80
2008,09,15,04,17,9.80
2008,09,15,04,18,9.80
2008,09,15,04,19,9.80
2008,09,15,04,20,9.80
2008,09,15,04,21,9.80
2008,09,15,04,22,9.80
2008,09,15,04,23,9.80
2008,09,15,04,24,9.80
2008,09,15,04,25,9.80
2008,09,15,04,26,9.80
2008,09,15,04,27,9.80
2008,09,15,04,28,9.70
2008,09,15,04,29,9.70
2008,09,15,04,30,9.70
2008,09,15,04,31,9.70
2008,09,15,04,32,9.70
2008,09,15,04,33,9.70
2008,09,15,04,34,9.70
2008,09,15,04,35,9.70
2008,09,15,04,36,9.70
2008,09,15,04,37,9.70
2008,09,15,04,38,9.70
2008,09,15,04,39,9.70
2008,09,15,04,40,9.70
2008,09,15,04,41,9.70
2008,09,15,04,42,9.70
2008,09,15,04,43,9.70
2008,09,15,04,44,9.60
2008,09,15,04,45,9.60
2008,09,15,04,46,9.60
2008,09,15,04,47,9.60
2008,09,15,04,48,9.60
2008,09,15,04,49,9.60
2008,09,15,04,50,9.60
2008,09,15,04,51,9.60
2008,09,15,04,52,9.60
2008,09,15,04,53,9.60
2008,09,15,04,54,9.60
2008,09,15,04,55,9.60
2008,09,15,04,56,9.50
2008,09,15,04,57,9.50
2008,09,15,04,58,9.50
2008,09,15,04,59,9.50
2008,09,15,05,00,9.50
2008,09,15,05,01,9.50
2008,09,15,05,02,9.50
2008,09,15,05,03,9.50
2008,09,15,05,04,9.40
2008,09,15,05,05,9.40
2008,09,15,05,06,9.40
2008,09,15,05,07,9.40
2008,09,15,05,08,9.40
2008,09,15,05,09,9.40
2008,09,15,05,10,9.40
2008,09,15,05,11,9.30
2008,09,15,05,12,9.30
2008,09,15,05,13,9.30
2008,09,15,05,14,9.30
2008,09,15,05,15,9.30
2008,09,15,05,16,9.30
2008,09,15,05,17,9.30
2008,09,15,05,18,9.30
2008,09,15,05,19,9.30
2008,09,15,05,20,9.30
2008,09,15,05,21,9.30
2008,09,15,05,22,9.30
2008,09,15,05,23,9.30
2008,09,15,05,24,9.30
2008,09,15,05,25,9.30
2008,09,15,05,26,9.30
2008,09,15,05,27,9.30
2008,09,15,05,28,9.30
2008,09,15,05,29,9.30
2008,09,15,05,30,9.20
2008,09,15,05,31,9.20
2008,09,15,05,32,9.20
2008,09,15,05,33,9.20
2008,09,15,05,34,9.20
2008,09,15,05,35,9.20
2008,09,15,05,36,9.20
2008,09,15,05,37,9.20
2008,09,15,05,38,9.20
2008,09,15,05,39,9.20
2008,09,15,05,40,9.20
2008,09,15,05,41,9.20
2008,09,15,05,42,9.20
2008,09,15,05,43,9.20
2008,09,15,05,44,9.20
2008,09,15,05,45,9.20
2008,09,15,05,46,9.20
2008,09,15,05,47,9.20
2008,09,15,05,48,9.20
2008,09,15,05,49,9.20
2008,09,15,05,50,9.20
2008,09,15,05,51,9.20
2008,09,15,05,52,9.20
2008,09,15,05,53,9.20
2008,09,15,05,54,9.20
2008,09,15,05,55,9.20
2008,09,15,05,56,9.20
2008,09,15,05,57,9.20
2008,09,15,05,58,9.20
2008,09,15,05,59,9.20
2008,09,15,06,00,9.20
2008,09,15,06,01,9.20
2008,09,15,06,02,9.20
2008,09,15,06,03,9.20
2008,09,15,06,04,9.20
2008,09,15,06,05,9.20
2008,09,15,06,06,9.10
2008,09,15,06,07,9.10
2008,09,15,06,08,9.10
2008,09,15,06,09,9.10
2008,09,15,06,10,9.10
2008,09,15,06,11,9.10
2008,09,15,06,12,9.10
2008,09,15,06,13,9.10
2008,09,15,06,14,9.10
2008,09,15,06,15,9.10
2008,09,15,06,16,9.10
2008,09,15,06,17,9.10
2008,09,15,06,18,9.10
2008,09,15,06,19,9.10
2008,09,15,06,20,9.00
2008,09,15,06,21,9.00
2008,09,15,06,22,9.00
2008,09,15,06,23,9.00
2008,09,15,06,24,9.00
2008,09,15,06,25,9.00
2008,09,15,06,26,9.00
2008,09,15,06,27,8.90
2008,09,15,06,28,8.90
2008,09,15,06,29,8.90
2008,09,15,06,30,8.90
2008,09,15,06,31,8.90
2008,09,15,06,32,8.90
2008,09,15,06,33,8.80
2008,09,15,06,34,8.80
2008,09,15,06,35,8.80
2008,09,15,06,36,8.80
2008,09,15,06,37,8.80
2008,09,15,06,38,8.80
2008,09,15,06,39,8.80
2008,09,15,06,40,8.90
2008,09,15,06,41,8.90
2008,09,15,06,42,8.80
2008,09,15,06,43,8.80
2008,09,15,06,44,8.80
2008,09,15,06,45,8.80
2008,09,15,06,46,8.80
2008,09,15,06,47,8.90
2008,09,15,06,48,8.90
2008,09,15,06,49,8.90
2008,09,15,06,50,8.90
2008,09,15,06,51,8.80
2008,09,15,06,52,8.80
2008,09,15,06,53,8.80
2008,09,15,06,54,8.80
2008,09,15,06,55,8.80
2008,09,15,06,56,8.80
2008,09,15,06,57,8.80
2008,09,15,06,58,8.80
2008,09,15,06,59,8.80
2008,09,15,07,00,8.70
2008,09,15,07,01,8.70
2008,09,15,07,02,8.70
2008,09,15,07,03,8.70
2008,09,15,07,04,8.70
2008,09,15,07,05,8.70
2008,09,15,07,06,8.70
2008,09,15,07,07,8.70
2008,09,15,07,08,8.70
2008,09,15,07,09,8.70
2008,09,15,07,10,8.70
2008,09,15,07,11,8.70
2008,09,15,07,12,8.70
2008,09,15,07,13,8.70
2008,09,15,07,14,8.70
2008,09,15,07,15,8.70
2008,09,15,07,16,8.70
2008,09,15,07,17,8.70
2008,09,15,07,18,8.70
2008,09,15,07,19,8.70
2008,09,15,07,20,8.70
2008,09,15,07,21,8.70
2008,09,15,07,22,8.70
2008,09,15,07,23,8.70
2008,09,15,07,24,8.70
2008,09,15,07,25,8.70
2008,09,15,07,26,8.70
2008,09,15,07,27,8.80
2008,09,15,07,28,8.80
2008,09,15,07,29,8.80
2008,09,15,07,30,8.80
2008,09,15,07,31,8.80
2008,09,15,07,32,8.80
2008,09,15,07,33,8.80
2008,09,15,07,34,8.80
2008,09,15,07,35,8.80
2008,09,15,07,36,8.80
2008,09,15,07,37,8.80
2008,09,15,07,38,8.90
2008,09,15,07,39,8.90
2008,09,15,07,40,8.90
2008,09,15,07,41,8.90
2008,09,15,07,42,9.00
2008,09,15,07,43,9.00
2008,09,15,07,44,9.10
2008,09,15,07,45,9.20
2008,09,15,07,46,9.20
2008,09,15,07,47,9.20
2008,09,15,07,48,9.30
2008,09,15,07,49,9.30
2008,09,15,07,50,9.40
2008,09,15,07,51,9.40
2008,09,15,07,52,9.50
2008,09,15,07,53,9.60
2008,09,15,07,54,9.70
2008,09,15,07,55,9.70
2008,09,15,07,56,9.70
2008,09,15,07,57,9.80
2008,09,15,07,58,9.90
2008,09,15,07,59,9.90
2008,09,15,08,00,10.10
2008,09,15,08,01,10.10
2008,09,15,08,02,10.20
2008,09,15,08,03,10.30
2008,09,15,08,04,10.40
2008,09,15,08,05,10.50
2008,09,15,08,06,10.60
2008,09,15,08,07,10.60
2008,09,15,08,08,10.70
2008,09,15,08,09,10.80
2008,09,15,08,10,10.80
2008,09,15,08,11,10.90
2008,09,15,08,12,10.90
2008,09,15,08,13,11.10
2008,09,15,08,14,11.20
2008,09,15,08,15,11.30
2008,09,15,08,16,11.40
2008,09,15,08,17,11.50
2008,09,15,08,18,11.60
2008,09,15,08,19,11.70
2008,09,15,08,20,11.80
2008,09,15,08,21,11.80
2008,09,15,08,22,11.90
2008,09,15,08,23,12.00
2008,09,15,08,24,12.10
2008,09,15,08,25,12.20
2008,09,15,08,26,12.30
2008,09,15,08,27,12.30
2008,09,15,08,28,12.40
2008,09,15,08,29,12.50
2008,09,15,08,30,12.50
2008,09,15,08,31,12.60
2008,09,15,08,32,12.70
2008,09,15,08,33,12.80
2008,09,15,08,34,12.80
2008,09,15,08,35,12.90
2008,09,15,08,36,13.00
2008,09,15,08,37,13.10
2008,09,15,08,38,13.20
2008,09,15,08,39,13.30
2008,09,15,08,40,13.30
2008,09,15,08,41,13.40
2008,09,15,08,42,13.50
2008,09,15,08,43,13.60
2008,09,15,08,44,13.70
2008,09,15,08,45,13.80
2008,09,15,08,46,13.90
2008,09,15,08,47,14.00
2008,09,15,08,48,14.10
2008,09,15,08,49,14.20
2008,09,15,08,50,14.30
2008,09,15,08,51,14.40
2008,09,15,08,52,14.50
2008,09,15,08,53,14.60
2008,09,15,08,54,14.70
2008,09,15,08,55,14.90
2008,09,15,08,56,15.10
2008,09,15,08,57,15.30
2008,09,15,08,58,15.50
2008,09,15,08,59,15.70
2008,09,15,09,00,15.80
2008,09,15,09,01,16.00
2008,09,15,09,02,16.10
2008,09,15,09,03,16.30
2008,09,15,09,04,16.40
2008,09,15,09,05,16.50
2008,09,15,09,06,16.70
2008,09,15,09,07,16.80
2008,09,15,09,08,16.90
2008,09,15,09,09,17.00
2008,09,15,09,10,17.10
2008,09,15,09,11,17.30
2008,09,15,09,12,17.40
2008,09,15,09,13,17.50
2008,09,15,09,14,17.50
2008,09,15,09,15,17.50
2008,09,15,09,16,17.50
2008,09,15,09,17,17.50
2008,09,15,09,18,17.40
2008,09,15,09,19,17.50
2008,09,15,09,20,17.50
2008,09,15,09,21,17.50
2008,09,15,09,22,17.60
2008,09,15,09,23,17.60
2008,09,15,09,24,17.70
2008,09,15,09,25,17.70
2008,09,15,09,26,17.70
2008,09,15,09,27,17.70
2008,09,15,09,28,17.70
2008,09,15,09,29,17.70
2008,09,15,09,30,17.70
2008,09,15,09,31,17.70
2008,09,15,09,32,17.80
2008,09,15,09,33,17.80
2008,09,15,09,34,17.80
2008,09,15,09,35,17.70
2008,09,15,09,36,17.70
2008,09,15,09,37,17.60
2008,09,15,09,38,17.60
2008,09,15,09,39,17.70
2008,09,15,09,40,17.70
2008,09,15,09,41,17.70
2008,09,15,09,42,17.70
2008,09,15,09,43,17.70
2008,09,15,09,44,17.70
2008,09,15,09,45,17.70
2008,09,15,09,46,17.80
2008,09,15,09,47,17.80
2008,09,15,09,48,17.90
2008,09,15,09,49,17.90
2008,09,15,09,50,18.00
2008,09,15,09,51,18.10
2008,09,15,09,52,18.20
2008,09,15,09,53,18.30
2008,09,15,09,54,18.20
2008,09,15,09,55,18.30
2008,09,15,09,56,18.30
2008,09,15,09,57,18.30
2008,09,15,09,58,18.30
2008,09,15,09,59,18.40
2008,09,15,10,00,18.50
2008,09,15,10,01,18.60
2008,09,15,10,02,18.60
2008,09,15,10,03,18.70
2008,09,15,10,04,18.80
2008,09,15,10,05,18.80
2008,09,15,10,06,18.90
2008,09,15,10,07,19.10
2008,09,15,10,08,19.10
2008,09,15,10,09,19.20
2008,09,15,10,10,19.20
2008,09,15,10,11,19.20
2008,09,15,10,12,19.20
2008,09,15,10,13,19.20
2008,09,15,10,14,19.10
2008,09,15,10,15,19.10
2008,09,15,10,16,19.20
2008,09,15,10,17,19.20
2008,09,15,10,18,19.20
2008,09,15,10,19,19.30
2008,09,15,10,20,19.30
2008,09,15,10,21,19.30
2008,09,15,10,22,19.30
2008,09,15,10,23,19.30
2008,09,15,10,24,19.40
2008,09,15,10,25,19.40
2008,09,15,10,26,19.50
2008,09,15,10,27,19.50
2008,09,15,10,28,19.50
2008,09,15,10,29,19.50
2008,09,15,10,30,19.50
2008,09,15,10,31,19.50
2008,09,15,10,32,19.60
2008,09,15,10,33,19.60
2008,09,15,10,34,19.60
2008,09,15,10,35,19.70
2008,09,15,10,36,19.70
2008,09,15,10,37,19.70
2008,09,15,10,38,19.70
2008,09,15,10,39,19.70
2008,09,15,10,40,19.80
2008,09,15,10,41,19.80
2008,09,15,10,42,19.70
2008,09,15,10,43,19.60
2008,09,15,10,44,19.60
2008,09,15,10,45,19.60
2008,09,15,10,46,19.60
2008,09,15,10,47,19.70
2008,09,15,10,48,19.70
2008,09,15,10,49,19.70
2008,09,15,10,50,19.70
2008,09,15,10,51,19.70
2008,09,15,10,52,19.70
2008,09,15,10,53,19.60
2008,09,15,10,54,19.60
2008,09,15,10,55,19.60
2008,09,15,10,56,19.70
2008,09,15,10,57,19.80
2008,09,15,10,58,19.80
2008,09,15,10,59,19.90
2008,09,15,11,00,19.90
2008,09,15,11,01,20.10
2008,09,15,11,02,20.20
2008,09,15,11,03,20.30
2008,09,15,11,04,20.30
2008,09,15,11,05,20.40
2008,09,15,11,06,20.50
2008,09,15,11,07,20.60
2008,09,15,11,08,20.60
2008,09,15,11,09,20.60
2008,09,15,11,10,20.70
2008,09,15,11,11,20.80
2008,09,15,11,12,20.80
2008,09,15,11,13,20.70
2008,09,15,11,14,20.70
2008,09,15,11,15,20.70
2008,09,15,11,16,20.70
2008,09,15,11,17,20.80
2008,09,15,11,18,20.80
2008,09,15,11,19,20.80
2008,09,15,11,20,20.80
2008,09,15,11,21,20.80
2008,09,15,11,22,20.80
2008,09,15,11,23,20.80
2008,09,15,11,24,20.80
2008,09,15,11,25,20.90
2008,09,15,11,26,20.90
2008,09,15,11,27,20.80
2008,09,15,11,28,20.80
2008,09,15,11,29,20.80
2008,09,15,11,30,20.80
2008,09,15,11,31,20.90
2008,09,15,11,32,21.00
2008,09,15,11,33,21.00
2008,09,15,11,34,21.00
2008,09,15,11,35,21.10
2008,09,15,11,36,21.20
2008,09,15,11,37,21.30
2008,09,15,11,38,21.40
2008,09,15,11,39,21.50
2008,09,15,11,40,21.60
2008,09,15,11,41,21.70
2008,09,15,11,42,21.80
2008,09,15,11,43,21.90
2008,09,15,11,44,22.00
2008,09,15,11,45,22.00
2008,09,15,11,46,22.10
2008,09,15,11,47,22.10
2008,09,15,11,48,22.10
2008,09,15,11,49,22.00
2008,09,15,11,50,21.90
2008,09,15,11,51,21.90
2008,09,15,11,52,21.90
2008,09,15,11,53,22.00
2008,09,15,11,54,21.90
2008,09,15,11,55,21.80
2008,09,15,11,56,21.90
2008,09,15,11,57,22.00
2008,09,15,11,58,22.00
2008,09,15,11,59,22.10
2008,09,15,12,00,22.10
2008,09,15,12,01,22.10
2008,09,15,12,02,22.20
2008,09,15,12,03,22.20
2008,09,15,12,04,22.20
2008,09,15,12,05,22.30
2008,09,15,12,06,22.40
2008,09,15,12,07,22.40
2008,09,15,12,08,22.40
2008,09,15,12,09,22.40
2008,09,15,12,10,22.40
2008,09,15,12,11,22.40
2008,09,15,12,12,22.50
2008,09,15,12,13,22.50
2008,09,15,12,14,22.50
2008,09,15,12,15,22.50
2008,09,15,12,16,22.60
2008,09,15,12,17,22.60
2008,09,15,12,18,22.60
2008,09,15,12,19,22.60
2008,09,15,12,20,22.60
2008,09,15,12,21,22.60
2008,09,15,12,22,22.60
2008,09,15,12,23,22.60
2008,09,15,12,24,22.70
2008,09,15,12,25,22.80
2008,09,15,12,26,22.80
2008,09,15,12,27,22.80
2008,09,15,12,28,22.90
2008,09,15,12,29,22.90
2008,09,15,12,30,23.10
2008,09,15,12,31,23.20
2008,09,15,12,32,23.20
2008,09,15,12,33,23.20
2008,09,15,12,34,23.20
2008,09,15,12,35,23.20
2008,09,15,12,36,23.30
2008,09,15,12,37,23.40
2008,09,15,12,38,23.60
2008,09,15,12,39,23.70
2008,09,15,12,40,23.70
2008,09,15,12,41,23.70
2008,09,15,12,42,23.60
2008,09,15,12,43,23.60
2008,09,15,12,44,23.60
2008,09,15,12,45,23.50
2008,09,15,12,46,23.30
2008,09,15,12,47,23.20
2008,09,15,12,48,23.10
2008,09,15,12,49,23.00
2008,09,15,12,50,22.90
2008,09,15,12,51,22.80
2008,09,15,12,52,22.70
2008,09,15,12,53,22.60
2008,09,15,12,54,22.30
2008,09,15,12,55,22.20
2008,09,15,12,56,22.30
2008,09,15,12,57,22.30
2008,09,15,12,58,22.30
2008,09,15,12,59,22.40
2008,09,15,13,00,22.50
2008,09,15,13,01,22.50
2008,09,15,13,02,22.50
2008,09,15,13,03,22.30
2008,09,15,13,04,22.20
2008,09,15,13,05,22.00
2008,09,15,13,06,22.00
2008,09,15,13,07,21.90
2008,09,15,13,08,21.80
2008,09,15,13,09,21.70
2008,09,15,13,10,21.60
2008,09,15,13,11,21.60
2008,09,15,13,12,21.70
2008,09,15,13,13,21.70
2008,09,15,13,14,21.80
2008,09,15,13,15,21.80
2008,09,15,13,16,21.80
2008,09,15,13,17,21.70
2008,09,15,13,18,21.80
2008,09,15,13,19,21.90
2008,09,15,13,20,21.80
2008,09,15,13,21,21.80
2008,09,15,13,22,21.90
2008,09,15,13,23,21.90
2008,09,15,13,24,22.00
2008,09,15,13,25,22.00
2008,09,15,13,26,22.00
2008,09,15,13,27,22.00
2008,09,15,13,28,21.90
2008,09,15,13,29,21.90
2008,09,15,13,30,21.90
2008,09,15,13,31,21.90
2008,09,15,13,32,22.00
2008,09,15,13,33,22.10
2008,09,15,13,34,22.10
2008,09,15,13,35,22.20
2008,09,15,13,36,22.30
2008,09,15,13,37,22.40
2008,09,15,13,38,22.50
2008,09,15,13,39,22.60
2008,09,15,13,40,22.70
2008,09,15,13,41,22.80
2008,09,15,13,42,22.80
2008,09,15,13,43,22.80
2008,09,15,13,44,22.80
2008,09,15,13,45,22.80
2008,09,15,13,46,22.90
2008,09,15,13,47,22.80
2008,09,15,13,48,22.80
2008,09,15,13,49,22.80
2008,09,15,13,50,22.70
2008,09,15,13,51,22.80
2008,09,15,13,52,22.80
2008,09,15,13,53,22.80
2008,09,15,13,54,22.70
2008,09,15,13,55,22.70
2008,09,15,13,56,22.60
2008,09,15,13,57,22.60
2008,09,15,13,58,22.60
2008,09,15,13,59,22.70
2008,09,15,14,00,22.80
2008,09,15,14,01,22.80
2008,09,15,14,02,22.70
2008,09,15,14,03,22.70
2008,09,15,14,04,22.70
2008,09,15,14,05,22.70
2008,09,15,14,06,22.70
2008,09,15,14,07,22.80
2008,09,15,14,08,22.80
2008,09,15,14,09,22.80
2008,09,15,14,10,22.80
2008,09,15,14,11,22.80
2008,09,15,14,12,22.90
2008,09,15,14,13,23.00
2008,09,15,14,14,23.20
2008,09,15,14,15,23.10
2008,09,15,14,16,23.10
2008,09,15,14,17,23.10
2008,09,15,14,18,23.10
2008,09,15,14,19,23.20
2008,09,15,14,20,23.30
2008,09,15,14,21,23.30
2008,09,15,14,22,23.30
2008,09,15,14,23,23.40
2008,09,15,14,24,23.50
2008,09,15,14,25,23.50
2008,09,15,14,26,23.50
2008,09,15,14,27,23.40
2008,09,15,14,28,23.20
2008,09,15,14,29,23.00
2008,09,15,14,30,22.90
2008,09,15,14,31,22.80
2008,09,15,14,32,22.80
2008,09,15,14,33,22.80
2008,09,15,14,34,22.90
2008,09,15,14,35,22.90
2008,09,15,14,36,23.00
2008,09,15,14,37,23.10
2008,09,15,14,38,23.20
2008,09,15,14,39,23.20
2008,09,15,14,40,23.30
2008,09,15,14,41,23.30
2008,09,15,14,42,23.40
2008,09,15,14,43,23.40
2008,09,15,14,44,23.40
2008,09,15,14,45,23.40
2008,09,15,14,46,23.30
2008,09,15,14,47,23.30
2008,09,15,14,48,23.20
2008,09,15,14,49,23.20
2008,09,15,14,50,23.20
2008,09,15,14,51,23.20
2008,09,15,14,52,23.30
2008,09,15,14,53,23.30
2008,09,15,14,54,23.20
2008,09,15,14,55,23.20
2008,09,15,14,56,23.10
2008,09,15,14,57,23.20
2008,09,15,14,58,23.30
2008,09,15,14,59,23.30
2008,09,15,15,00,23.40
2008,09,15,15,01,23.60
2008,09,15,15,02,23.70
2008,09,15,15,03,23.60
2008,09,15,15,04,23.50
2008,09,15,15,05,23.30
2008,09,15,15,06,23.30
2008,09,15,15,07,23.20
2008,09,15,15,08,23.20
2008,09,15,15,09,23.20
2008,09,15,15,10,23.30
2008,09,15,15,11,23.30
2008,09,15,15,12,23.30
2008,09,15,15,13,23.30
2008,09,15,15,14,23.30
2008,09,15,15,15,23.30
2008,09,15,15,16,23.30
2008,09,15,15,17,23.30
2008,09,15,15,18,23.30
2008,09,15,15,19,23.30
2008,09,15,15,20,23.20
2008,09,15,15,21,23.20
2008,09,15,15,22,23.10
2008,09,15,15,23,23.10
2008,09,15,15,24,23.10
2008,09,15,15,25,23.10
2008,09,15,15,26,23.20
2008,09,15,15,27,23.20
2008,09,15,15,28,23.20
2008,09,15,15,29,23.20
2008,09,15,15,30,23.20
2008,09,15,15,31,23.10
2008,09,15,15,32,23.00
2008,09,15,15,33,22.90
2008,09,15,15,34,22.90
2008,09,15,15,35,22.90
2008,09,15,15,36,22.90
2008,09,15,15,37,22.90
2008,09,15,15,38,22.80
2008,09,15,15,39,22.80
2008,09,15,15,40,22.80
2008,09,15,15,41,22.90
2008,09,15,15,42,22.90
2008,09,15,15,43,22.90
2008,09,15,15,44,22.90
2008,09,15,15,45,22.90
2008,09,15,15,46,22.90
2008,09,15,15,47,22.90
2008,09,15,15,48,22.90
2008,09,15,15,49,23.00
2008,09,15,15,50,23.10
2008,09,15,15,51,23.20
2008,09,15,15,52,23.20
2008,09,15,15,53,23.20
2008,09,15,15,54,23.10
2008,09,15,15,55,23.00
2008,09,15,15,56,23.00
2008,09,15,15,57,23.10
2008,09,15,15,58,23.10
2008,09,15,15,59,23.10
2008,09,15,16,00,23.10
2008,09,15,16,01,23.10
2008,09,15,16,02,23.10
2008,09,15,16,03,23.10
2008,09,15,16,04,23.10
2008,09,15,16,05,23.00
2008,09,15,16,06,22.90
2008,09,15,16,07,22.90
2008,09,15,16,08,22.90
2008,09,15,16,09,22.90
2008,09,15,16,10,22.90
2008,09,15,16,11,22.90
2008,09,15,16,12,22.90
2008,09,15,16,13,22.90
2008,09,15,16,14,23.00
2008,09,15,16,15,23.10
2008,09,15,16,16,23.10
2008,09,15,16,17,23.10
2008,09,15,16,18,23.00
2008,09,15,16,19,22.90
2008,09,15,16,20,22.90
2008,09,15,16,21,22.90
2008,09,15,16,22,22.90
2008,09,15,16,23,22.90
2008,09,15,16,24,22.90
2008,09,15,16,25,22.90
2008,09,15,16,26,22.90
2008,09,15,16,27,22.80
2008,09,15,16,28,22.80
2008,09,15,16,29,22.80
2008,09,15,16,30,22.90
2008,09,15,16,31,22.90
2008,09,15,16,32,22.90
2008,09,15,16,33,22.90
2008,09,15,16,34,22.90
2008,09,15,16,35,22.90
2008,09,15,16,36,22.90
2008,09,15,16,37,22.90
2008,09,15,16,38,22.90
2008,09,15,16,39,22.90
2008,09,15,16,40,22.90
2008,09,15,16,41,22.90
2008,09,15,16,42,23.00
2008,09,15,16,43,23.10
2008,09,15,16,44,23.10
2008,09,15,16,45,23.10
2008,09,15,16,46,23.10
2008,09,15,16,47,23.10
2008,09,15,16,48,23.20
2008,09,15,16,49,23.20
2008,09,15,16,50,23.20
2008,09,15,16,51,23.20
2008,09,15,16,52,23.20
2008,09,15,16,53,23.20
2008,09,15,16,54,23.20
2008,09,15,16,55,23.20
2008,09,15,16,56,23.20
2008,09,15,16,57,23.20
2008,09,15,16,58,23.20
2008,09,15,16,59,23.20
2008,09,15,17,00,23.10
2008,09,15,17,01,23.20
2008,09,15,17,02,23.20
2008,09,15,17,03,23.20
2008,09,15,17,04,23.10
2008,09,15,17,05,23.10
2008,09,15,17,06,23.10
2008,09,15,17,07,23.00
2008,09,15,17,08,22.90
2008,09,15,17,09,22.90
2008,09,15,17,10,22.90
2008,09,15,17,11,23.10
2008,09,15,17,12,23.10
2008,09,15,17,13,23.20
2008,09,15,17,14,23.20
2008,09,15,17,15,23.20
2008,09,15,17,16,23.20
2008,09,15,17,17,23.30
2008,09,15,17,18,23.30
2008,09,15,17,19,23.30
2008,09,15,17,20,23.30
2008,09,15,17,21,23.40
2008,09,15,17,22,23.30
2008,09,15,17,23,23.30
2008,09,15,17,24,23.30
2008,09,15,17,25,23.30
2008,09,15,17,26,23.30
2008,09,15,17,27,23.30
2008,09,15,17,28,23.30
2008,09,15,17,29,23.30
2008,09,15,17,30,23.30